PST,Max TemperatureF,Mean TemperatureF,Min TemperatureF,Max Dew PointF,MeanDew PointF,Min DewpointF,Max Humidity, Mean Humidity, Min Humidity, Max Sea Level PressureIn, Mean Sea Level PressureIn, Min Sea Level PressureIn, Max VisibilityMiles, Mean VisibilityMiles, Min VisibilityMiles, Max Wind SpeedMPH, Mean Wind SpeedMPH, Max Gust SpeedMPH,PrecipitationIn, CloudCover, Events, WindDirDegrees
2013-11-1,60,52,44,48,46,41,93,81,59,30.33,30.18,29.92,10,7,0,7,5,,0.14,5,,158
2013-11-2,55,48,42,48,42,36,88,74,51,30.06,29.91,29.68,10,9,3,16,7,25,0.68,7,,148
2013-11-3,48,44,41,43,40,37,87,81,71,30.17,30.13,30.05,10,10,5,10,5,,0.11,6,,148
2013-11-4,48,42,37,45,41,34,93,86,81,30.21,30.17,30.10,10,10,5,12,2,18,0.11,8,,148
2013-11-5,53,48,44,48,45,43,93,84,72,30.29,30.18,30.10,10,10,5,15,7,22,0.06,8,,155
2013-11-6,53,48,44,48,45,43,93,86,76,30.34,30.26,30.10,10,9,4,14,1,20,0.18,8,,116
2013-11-7,53,50,48,50,45,43,88,84,71,30.14,29.99,29.86,10,9,5,16,10,22,0.71,8,,150
2013-11-8,51,45,39,45,43,37,93,84,71,30.22,30.19,30.13,10,10,1,,,,0.07,6,,-1
2013-11-9,46,42,39,43,40,37,93,85,76,30.18,30.12,30.09,10,8,0,0,0,,0.00,8,,-1
2013-11-10,53,47,41,46,42,37,93,83,72,30.14,30.11,30.08,10,10,3,8,1,,0.00,4,,348
2013-11-11,60,53,46,45,43,39,87,77,52,30.20,30.11,30.05,10,10,5,5,2,,0.00,3,,2
2013-11-12,57,52,46,50,46,39,93,82,58,30.45,30.29,30.09,10,10,5,12,5,20,0.08,7,,155
2013-11-13,57,50,42,46,44,39,93,84,67,30.51,30.45,30.35,10,7,0,7,3,,0.00,5,,155
2013-11-14,50,46,42,45,43,39,93,86,76,30.34,30.21,30.14,10,9,2,4,1,,0.04,8,,2
2013-11-15,48,46,44,45,41,39,93,84,81,30.13,29.90,29.55,10,9,3,6,5,,0.46,8,,265
2013-11-16,48,45,42,43,39,36,87,79,71,29.88,29.72,29.54,10,9,4,12,6,16,0.34,8,,171
2013-11-17,51,46,42,46,43,39,87,83,76,29.98,29.95,29.89,10,9,3,16,13,23,0.11,8,,153
2013-11-18,53,52,50,46,44,43,82,76,71,29.97,29.84,29.69,10,10,9,21,13,34,0.23,8,,147
2013-11-19,53,42,32,48,40,28,88,80,61,30.06,29.87,29.70,10,9,3,12,6,16,0.27,6,,201
2013-11-20,44,36,28,30,27,23,93,72,49,30.49,30.30,30.07,10,10,5,9,4,,0.00,1,,12
2013-11-21,44,34,23,27,24,18,86,72,43,30.65,30.60,30.50,10,10,9,12,3,,0.00,0,,351
2013-11-22,48,34,21,28,23,18,93,74,40,30.63,30.55,30.46,10,10,8,7,1,,0.00,0,,329
2013-11-23,51,37,23,34,26,19,87,76,38,30.46,30.33,30.22,10,10,7,4,0,,0.00,1,,331
2013-11-24,50,37,24,28,25,19,93,71,40,30.31,30.23,30.20,10,10,8,12,2,,0.00,0,,151
2013-11-25,48,37,26,30,27,21,86,69,43,30.37,30.33,30.31,10,10,9,9,3,,0.00,0,,143
2013-11-26,46,37,28,36,29,25,93,70,50,30.32,30.22,30.11,10,10,8,9,2,,0.00,3,,148
2013-11-27,53,42,32,36,33,28,93,76,44,30.10,30.04,29.98,10,10,7,10,1,,0.00,1,,154
2013-11-28,53,40,26,34,29,25,93,76,44,30.24,30.14,30.07,10,10,7,9,1,,0.00,0,,149
2013-11-29,42,35,28,39,33,25,93,80,70,30.39,30.33,30.24,10,10,6,8,3,,0.00,6,,152
2013-11-30,48,45,42,43,39,36,87,79,71,30.41,30.35,30.21,10,8,4,14,6,17,0.16,8,,150